This demonstration page uses our WeatherBlox Daily Observations layout. Learn more.

Left ArrowRight Arrow

38.80484, -77.04692

Hourly Observations for September 22, 2021

Temp ( °F °C ) Dew Point ( °F °C ) Humidity (%) Winds ( mph kmh ) Pressure ( in mb ) Visibility ( mi km ) Precip ( " mm )
12:52 am 00:52 Cloudy 73 22.8 67 19.4 81 81 ESE 3 6 30.16 1021 10 16 N/A
1:35 am 01:35 Cloudy 72 22.2 68 20 87 87 ESE 3 6 30.15 1021 10 16 N/A
1:52 am 01:52 Cloudy 72 22.2 68 20 87 87 N N/A 30.14 1021 10 16 N/A
2:20 am 02:20 Cloudy 72 22.2 68 20 87 87 E 5 7 30.13 1020 10 16 N/A
2:52 am 02:52 Cloudy 72 22.2 68 20 87 87 ESE 3 6 30.11 1020 10 16 N/A
3:14 am 03:14 Cloudy 72 22.2 68 20 87 87 N N/A 30.11 1020 10 16 N/A
3:52 am 03:52 Cloudy 73 22.8 68 20 84 84 ESE 6 9 30.09 1019 10 16 N/A
4:07 am 04:07 Cloudy 73 22.8 69 20.6 87 87 ESE 6 9 30.09 1019 10 16 N/A
4:52 am 04:52 Cloudy 73 22.8 69 20.6 87 87 SSE 3 6 30.08 1019 10 16 N/A
5:52 am 05:52 Cloudy with Light Rain 74 23.3 70 21.1 88 88 ESE 6 9 30.06 1018 10 16 0.00 0.00
6:18 am 06:18 Cloudy 74 23.3 70 21.1 88 88 SSE 5 7 30.06 1018 10 16 0.00 0.00
6:30 am 06:30 Cloudy 74 23.3 70 21.1 88 88 SSE 7 11 30.06 1018 10 16 0.00 0.00
6:52 am 06:52 Cloudy with Light Rain 75 23.9 70 21.1 84 84 SE 8 13 30.05 1018 10 16 0.00 0.00
7:52 am 07:52 Cloudy 75 23.9 70 21.1 84 84 SE 10 17 30.04 1017 10 16 0.00 0.00
8:52 am 08:52 Cloudy 76 24.4 71 21.7 85 85 SE 13 20 30.03 1017 10 16 N/A
9:32 am 09:32 Cloudy 77 25 71 21.7 82 82 SSE 15 24 30.02 1017 10 16 0.00 0.00
9:52 am 09:52 Cloudy with Light Rain 77 25 70 21.1 79 79 SSE 14 22 30.01 1016 10 16 0.00 0.00
10:26 am 10:26 Cloudy with Light Rain 77 25 72 22.2 85 85 SSE 13 20 30.00 1016 10 16 0.04 1.02
10:52 am 10:52 Cloudy 78 25.6 72 22.2 82 82 SSE 13 20 30.00 1016 10 16 0.04 1.02
11:52 am 11:52 Cloudy with Light Rain 78 25.6 71 21.7 79 79 SSE 14 22 29.98 1015 10 16 0.00 0.00
12:52 pm 12:52 Cloudy 79 26.1 73 22.8 82 82 SSE 12 19 29.95 1014 10 16 0.00 0.00
1:52 pm 13:52 Cloudy 80 26.7 73 22.8 79 79 SE 9 15 29.92 1013 10 16 N/A
2:14 pm 14:14 Cloudy 80 26.7 72 22.2 76 76 SE 13 20 29.90 1012 10 16 N/A
2:25 pm 14:25 Cloudy with Light Rain 79 26.1 73 22.8 82 82 SSE 10 17 29.90 1012 10 16 0.01 0.25
2:52 pm 14:52 Cloudy with Light Rain 80 26.7 72 22.2 76 76 SE 10 17 29.89 1012 9 14 0.01 0.25
3:18 pm 15:18 Cloudy with Light Rain 79 26.1 71 21.7 77 77 S 20 31 29.89 1012 7 11 0.00 0.00
3:20 pm 15:20 Cloudy with Nearby Thunderstorms 78 25.6 71 21.7 79 79 SSW 24 39 29.90 1012 6 10 0.00 0.00
3:24 pm 15:24 Cloudy with Nearby Thunderstorms 73 22.8 67 19.4 81 81 SSW 25 41 29.90 1012 2 3 0.02 0.51
3:35 pm 15:35 Cloudy with Rain 72 22.2 67 19.4 84 84 S 8 13 29.88 1012 3 4 0.15 3.81
3:37 pm 15:37 Cloudy with Light Rain 72 22.2 68 20 87 87 S 9 15 29.88 1012 5 8 0.15 3.81
3:52 pm 15:52 Cloudy with Light Rain 75 23.9 70 21.1 84 84 S 9 15 29.87 1012 9 14 0.17 4.32
4:52 pm 16:52 Mostly Cloudy with Light Rain 78 25.6 70 21.1 76 76 SSE 21 33 29.87 1012 10 16 0.00 0.00
5:14 pm 17:14 Cloudy with Light Rain 77 25 71 21.7 82 82 S 18 30 29.88 1012 5 8 0.04 1.02
5:32 pm 17:32 Cloudy with Nearby Thunderstorms 74 23.3 69 20.6 85 85 S 21 33 29.88 1012 6 10 0.04 1.02
5:43 pm 17:43 Cloudy with Thunderstorms 74 23.3 69 20.6 85 85 SSE 21 33 29.87 1011 5 8 0.06 1.52
5:52 pm 17:52 Cloudy with Thunderstorms 74 23.3 69 20.6 85 85 SSE 16 26 29.87 1011 5 8 0.08 2.03
6:08 pm 18:08 Mostly Cloudy with Light Rain 74 23.3 69 20.6 85 85 S 15 24 29.86 1011 10 16 0.02 0.51
6:52 pm 18:52 Mostly Cloudy 74 23.3 70 21.1 88 88 SE 12 19 29.85 1011 10 16 0.02 0.51
7:52 pm 19:52 Mostly Cloudy with Light Rain 74 23.3 70 21.1 88 88 SSE 15 24 29.85 1011 10 16 0.01 0.25
8:52 pm 20:52 Mostly Cloudy 74 23.3 70 21.1 88 88 SSE 10 17 29.85 1011 10 16 0.00 0.00
9:52 pm 21:52 Mostly Cloudy 74 23.3 70 21.1 88 88 SSE 9 15 29.85 1011 10 16 N/A
10:52 pm 22:52 Cloudy 75 23.9 71 21.7 88 88 SSE 14 22 29.85 1011 10 16 0.00 0.00
11:52 pm 23:52 Cloudy 76 24.4 71 21.7 85 85 SE 13 20 29.83 1010 10 16 N/A

Powered by AerisWeather